Skip Page Navigation
NASA JPL Caltech
NASA Logo - Jet Propulsion Laboratory + View the NASA Portal
+ Center for Near-Earth Object Studies
JPL Home Earth Solar System Stars & Galaxies Technology
JPL Solar System Dynamics
BODIES ORBITS EPHEMERIDES TOOLS PHYSICAL DATA DISCOVERY FAQ SITE MAP
JPL Small-Body Database Browser
Search: [ help ]  
52364 (1993 FG38)
Classification: Outer Main-belt Asteroid          SPK-ID: 2052364
Ephemeris | Orbit Diagram | Orbital Elements | Mission Design | Physical Parameters | Discovery Circumstances | Close-Approach Data ]

[ show orbit diagram ]
Orbital Elements at Epoch 2459200.5 (2020-Dec-17.0) TDB
Reference: JPL 25 (heliocentric ecliptic J2000)
 Element Value Uncertainty (1-sigma)   Units 
e .1361592301816333 3.3144e-08  
a 3.208203759275443 1.8016e-08 au
q 2.771377205146677 1.0927e-07 au
i 6.976615101579332 4.7377e-06 deg
node 166.7617628008373 3.1786e-05 deg
peri 293.6464412670507 3.781e-05 deg
M 7.588433475687289 1.829e-05 deg
tp 2459156.257366259190
(2020-Nov-02.75736626)
0.00010663 TDB
period 2098.898039723399
5.75
1.768e-05
4.841e-08
d
yr
n .1715185745980506 1.4448e-09 deg/d
Q 3.645030313404209 2.0469e-08 au
  Orbit Determination Parameters
   # obs. used (total)      1024  
   data-arc span      10228 days (28.00 yr)  
   first obs. used      1993-03-19  
   last obs. used      2021-03-20  
   planetary ephem.      DE441  
   SB-pert. ephem.      SB441-N16  
   condition code      0  
   norm. resid. RMS      .50159  
   source      ORB  
   producer      Otto Matic  
   solution date      2021-May-04 06:18:08  

Additional Information
 Earth MOID = 1.79741 au 
 Jupiter MOID = 1.55013 au 
 T_jup = 3.166 
[ show covariance matrix ]

Ephemeris | Orbit Diagram | Orbital Elements | Mission Design | Physical Parameters | Discovery Circumstances | Close-Approach Data ]

Physical Parameter Table
Parameter Symbol Value Units Sigma Reference Notes
absolute magnitude H 14.57   n/a MPCxxxxx  

52364 (1993 FG38)          Discovered 1993-Mar-19 by UESAC at La Silla
Reference: 20030216/Numbers.arcLast Updated: 2004-04-19

[ show close-approach data ]
Alternate Designations
 1993 FG38 = 2001 QX289 
Ephemeris | Orbit Diagram | Orbital Elements | Mission Design | Physical Parameters | Discovery Circumstances | Close-Approach Data ]
ABOUT SSD CREDITS/AWARDS PRIVACY/COPYRIGHT GLOSSARY LINKS
FirstGov 2021-Jun-13 03:14 UT
(server date/time)  
NASA Home Page
Site Manager:   Ryan S. Park
Webmaster  Alan B. Chamberlin